Regional Weather Roundup
Issued by NWS Columbia, SC

Home | Current Version | Previous Version | Text Only | Print | Product List | Glossary On
Versions: 1 2 3 4 5 6 7 8 9 10 11 12 13 14 15 16 17 18 19 20 21 22 23 24 25 26 27
000
ASUS42 KCAE 240210
RWRCAE
REGIONAL WEATHER ROUNDUP
NATIONAL WEATHER SERVICE COLUMBIA SC
900 PM EST FRI FEB 23 2018

NOTE: "FAIR" INDICATES FEW OR NO CLOUDS BELOW 12,000 FEET WITH NO
SIGNIFICANT WEATHER AND/OR OBSTRUCTIONS TO VISIBILITY.

NOT ALL STATIONS ARE QUALITY CONTROLLED BY THE NATIONAL
WEATHER SERVICE. USE DATA WITH CAUTION...ESPECIALLY
DEWPOINT OBSERVATIONS.

SCZ001>056-GAZ040-063>065-077-240300-
...UPSTATE SOUTH CAROLINA...

CITY           SKY/WX    TMP DP  RH WIND       PRES   REMARKS
ANDERSON       FAIR      65  57  75 CALM      30.30F
LIBERTY        FAIR      58  58  99 CALM      30.30F
SPARTANBURG    FAIR      61  54  77 CALM      30.30F
CLEMSON        FAIR      64  57  78 CALM      30.31F
GREENVILLE     FAIR      67  58  72 SE3       30.32S
GREENWOOD      FAIR      59  56  89 CALM      30.32F
GREER          FAIR      62  57  83 S5        30.31F
ROCK HILL      FAIR      65  56  72 SW3       30.32R
CHESTER        FAIR      63  55  77 CALM      30.33S
LAURENS        FAIR      63  55  77 S3        30.31S


...CENTRAL SOUTH CAROLINA...

CITY           SKY/WX    TMP DP  RH WIND       PRES   REMARKS
COLUMBIA APT   FAIR      65  59  81 CALM      30.30S
COLUMBIA OWENS FAIR      64  56  75 CALM      30.31S
MCENTIRE ANGB  CLEAR     62  58  86 SE5       30.31S
ORANGEBURG     FAIR      68  61  78 S8        30.32R
SUMTER SHAW    FAIR      68  59  73 S12       30.29S
NEWBERRY       FAIR      61  57  88 CALM      30.35S
AIKEN          FAIR      61  55  82 CALM      30.34F
BARNWELL         N/A     70  64  83 S6        30.32R
MANNING        FAIR      66  48  52 MISG      30.33S
CAMDEN         FAIR      61  55  82 CALM      30.32S
LANCASTER      FAIR      63  59  88 CALM      30.32S
WINNSBORO      FAIR      63  55  77 CALM      30.32R


...EASTERN AND COASTAL SOUTH CAROLINA...

CITY           SKY/WX    TMP DP  RH WIND       PRES   REMARKS
MYRTLE BEACH   CLOUDY    66  63  90 S8        30.35F
N MYRTLE BCH   CLOUDY    65  63  93 S7        30.34F
CONWAY         FAIR      61  61 100 CALM      30.34F
MARION         FAIR      64  61  88 SE5       30.33F
HARTSVILLE     FAIR      64  57  77 SE6       30.31S
FLORENCE       FAIR      67  63  87 S6        30.32F
DARLINGTON     FAIR      66  62  87 SE7       30.32S
CHARLESTON APT MOCLDY    67  65  93 S7        30.33F
MOUNT PLEASANT FAIR      66  64  94 CALM      30.34F
WALTERBORO     FAIR      64  63  94 SE5       30.34S
BEAUFORT       FAIR      67  65  93 S3        30.33


...EASTERN GEORGIA...

CITY           SKY/WX    TMP DP  RH WIND       PRES   REMARKS
AUGUSTA BUSH F FAIR      61  57  87 CALM      30.29S
AUGUSTA DANIEL FAIR      72  58  61 E3        30.31S
THOMSON        FAIR      61  58  88 S3        30.34F
WASHINGTON     FAIR      61  57  88 E3        30.30F
CLAXTON        FAIR      70  64  83 CALM      30.31S
SYLVANIA       FAIR      67  64  88 CALM      30.32S
STATESBORO     FAIR      69  60  74 SE3       30.32S
SAVANNAH       FAIR      67  64  90 SE5       30.33S


...SOUTHERN NORTH CAROLINA...

CITY           SKY/WX    TMP DP  RH WIND       PRES   REMARKS
CHARLOTTE      FAIR      66  55  67 SW5       30.32R
MONROE         FAIR      63  56  78 CALM      30.31R
WADESBORO      FAIR      62  55  78 CALM      30.31R
ROCKINGHAM     FAIR      67  58  72 S6        30.31S
RUTHERFORDTON  FAIR      64  58  81 S3        30.32F
ASHEVILLE      FAIR      62  54  74 SE3       30.33F

$$




USA.gov is the U.S. government's official web portal to all federal, state and local government web resources and services.